Location: Clarks Summit,Pa.
(41.5000°N, 75.6000°W)
Time: 17:50:43
(UTC-05:00)

ISS - Visible Passes

Search period start: 15 February 2019 00:00
Search period end: 25 February 2019 00:00
Orbit: 403 x 411 km, 51.6° (Epoch: 16 February)

Date Brightness Start Highest point End Pass type
(mag) Time Alt. Az. Time Alt. Az. Time Alt. Az.
20 Feb -0.3 06:08:10 10° SE 06:08:44 10° SE 06:09:19 10° ESE visible
22 Feb -1.6 05:59:12 10° SSW 06:01:57 25° SE 06:04:43 10° ENE visible
23 Feb -0.9 05:08:52 10° SSE 05:10:38 14° SE 05:12:23 10° E visible
24 Feb -3.5 05:52:02 10° SW 05:55:16 65° SE 05:58:30 10° ENE visible
